Location: Unspecified
(0.0000°N, 0.0000°E)
Time: 04:34:40
(UTC+00:00)

Safir 2 - Pass Details

Date: 22 May 2026
Orbit: 804 x 808 km, 99.0° (Epoch: 11 June)

Event Time Altitude Azimuth Distance (km) Brightness Sun altitude
Rises 04:40:46 0° 6° (N) 3,301 11.7 -17.8°
Reaches altitude 10° 04:43:06 10° 3° (N) 2,373 10.8 -17.2°
Maximum altitude 04:48:17 63° 283° (WNW) 892 8.1 -16.0°
Drops below altitude 10° 04:53:29 10° 202° (SSW) 2,383 10.2 -14.8°
Enters shadow 04:53:39 - 202° (SSW) 2,445 10.2 -14.7°
